Change the Weather History Date:

Monday, October 1, 2012

  Actual Average Record
Temperature  
Mean Temperature 54 °F 53 °F  
Max Temperature 68 °F 63 °F 78 °F (1987)
Min Temperature 43 °F 44 °F 30 °F (1950)
Degree Days  
Heating Degree Days 10 12  
Month to date heating degree days 12  
Cooling Degree Days 0 0  
Month to date cooling degree days 0  
Year to date cooling degree days 42  
Growing Degree Days 4 (Base 50)    
Moisture  
Dew Point 49 °F    
Average Humidity 80    
Maximum Humidity 97    
Minimum Humidity 56    
Precipitation  
Precipitation 0.00 in 0.07 in 1.34 in (1981)
Month to date precipitation 0.07  
Year to date precipitation 22.20  
Sea Level Pressure  
Sea Level Pressure 30.24 in    
Wind  
Wind Speed 4 mph (South)    
Max Wind Speed 14 mph    
Max Gust Speed 23 mph    
Visibility 10 miles    
Events      
T = Trace of Precipitation, MM = Missing Value Source: NWS Daily Summary

Daily Weather History Graph

Daily Weather History Graph

Search for Another Location

Airport or City:

Trip Planner

Search our weather history database for the weather conditions in past years. The results will help you decide how hot, cold, wet, or windy it might be!

Date:

Astronomy

Oct. 01, 2012 Rise Set
Actual Time 7:10 AM PDT 6:47 PM PDT
Civil Twilight 6:39 AM PDT 7:19 PM PDT
Nautical Twilight 6:02 AM PDT 7:55 PM PDT
Astronomical Twilight 5:25 AM PDT 8:32 PM PDT
Moon 7:13 PM PDT (10/1) 8:58 AM PDT (10/1)
Length of Visible Light 12h 39m
Length of Day
11h 37m
Full, 97% of the Moon is Illuminated
Oct 1
Full
Oct 8
Last Quarter
Oct 15
New
Oct 21
First Quarter
Oct 29
Full

Hourly Weather History & Observations

Time (PDT) Temp. Dew Point Humidity Pressure Visibility Wind Dir Wind Speed Gust Speed Precip Events Conditions
12:53 AM 46.9 °F 44.1 °F 90% 30.38 in 10.0 mi Calm Calm - N/A   Clear
1:53 AM 45.0 °F 43.0 °F 93% 30.38 in 10.0 mi Calm Calm - N/A   Clear
2:53 AM 45.0 °F 43.0 °F 93% 30.36 in 10.0 mi Calm Calm - N/A   Clear
3:53 AM 45.0 °F 43.0 °F 93% 30.36 in 10.0 mi Calm Calm - N/A   Clear
4:53 AM 43.0 °F 42.1 °F 97% 30.35 in 10.0 mi Calm Calm - N/A   Clear
5:53 AM 44.1 °F 41.0 °F 89% 30.34 in 10.0 mi Calm Calm - N/A   Clear
6:53 AM 43.0 °F 41.0 °F 93% 30.33 in 10.0 mi Calm Calm - N/A   Clear
7:53 AM 46.0 °F 43.0 °F 89% 30.32 in 10.0 mi Calm Calm - N/A   Clear
8:53 AM 54.0 °F 48.0 °F 80% 30.30 in 10.0 mi SSE 6.9 mph - N/A   Clear
9:53 AM 55.0 °F 46.9 °F 74% 30.30 in 10.0 mi SSE 4.6 mph - N/A   Clear
10:53 AM 57.0 °F 48.9 °F 74% 30.27 in 10.0 mi SSE 9.2 mph - N/A   Overcast
11:53 AM 63.0 °F 48.0 °F 58% 30.24 in 10.0 mi South 12.7 mph 20.7 mph N/A   Scattered Clouds
12:53 PM 64.9 °F 48.9 °F 56% 30.22 in 10.0 mi South 8.1 mph 20.7 mph N/A   Partly Cloudy
1:53 PM 66.9 °F 53.1 °F 61% 30.20 in 10.0 mi South 12.7 mph - N/A   Overcast
2:53 PM 66.2 °F 55.4 °F 68% 30.15 in 10.0 mi South 13.8 mph - N/A   Mostly Cloudy
3:53 PM 66.9 °F 57.0 °F 70% 30.15 in 10.0 mi South 13.8 mph 23.0 mph N/A   Overcast
4:53 PM 64.9 °F 57.9 °F 78% 30.13 in 10.0 mi SSE 12.7 mph - N/A   Overcast
5:53 PM 64.0 °F 57.0 °F 78% 30.10 in 10.0 mi South 12.7 mph 19.6 mph N/A   Mostly Cloudy
6:53 PM 62.1 °F 55.0 °F 78% 30.10 in 10.0 mi South 10.4 mph 17.3 mph N/A   Clear
7:53 PM 60.8 °F 53.6 °F 77% 30.09 in 10.0 mi South 6.9 mph - N/A   Clear
8:53 PM 60.1 °F 53.1 °F 78% 30.14 in 10.0 mi SW 5.8 mph - N/A   Mostly Cloudy
9:53 PM 57.9 °F 52.0 °F 81% 30.15 in 10.0 mi Calm Calm - N/A   Overcast
10:53 PM 55.9 °F 51.1 °F 84% 30.16 in 10.0 mi Calm Calm - N/A   Mostly Cloudy
11:53 PM 55.4 °F 48.2 °F 77% 30.16 in 10.0 mi Variable 3.5 mph - N/A   Clear